Regional Weather Roundup
Issued by NWS

Home | Current Version | Previous Version | Text Only | Print | Product List | Glossary Off
Versions: 1 2 3 4 5 6 7 8 9 10 11 12 13 14 15 16 17 18 19 20 21 22 23 24 25 26 27 28 29 30 31 32 33 34 35 36 37 38 39 40 41 42 43 44 45 46 47 48 49 50

000
ASUS44 KMEG 281900
RWRTN
TENNESSEE HOURLY STATE WEATHER ROUNDUP
NATIONAL WEATHER SERVICE MEMPHIS TN
200 PM CDT FRI APR 28 2017

TNZ002-004-019-021-049-052-054-088>092-282000-
WEST TENNESSEE

CITY           SKY/WX    TMP DP  RH WIND       PRES   REMARKS
MEMPHIS INTL   CLOUDY    80  72  76 S16       29.78F
NWS MEMPHIS      N/A     78 N/A N/A MISG        N/A
JACKSON        CLOUDY    74  69  85 S9        29.83S
DYERSBURG      PTSUNNY   75  68  78 S15G22    29.79F
PARIS          CLOUDY    66  64  94 S10       29.84F
$$

TNZ008-025-027-028-033-062-065-066-282000-
NORTH MIDDLE TENNESSEE

CITY           SKY/WX    TMP DP  RH WIND       PRES   REMARKS
NASHVILLE      CLOUDY    79  66  64 S14G23    29.91F
CLARKSVILLE    LGT RAIN  71  66  84 S7        29.86F
SMYRNA         CLOUDY    78  67  68 S8G17     29.92F
CROSSVILLE     CLOUDY    73  63  70 S8G21     30.01F
$$

TNZ061-075-076-078-094-096-097-282000-
SOUTH MIDDLE TENNESSEE

CITY           SKY/WX    TMP DP  RH WIND       PRES   REMARKS
TULLAHOMA      PTSUNNY   77  64  65 S10       29.96F
WINCHESTER     PTSUNNY   79  66  65 S12       29.96F
MCMINNVILLE    CLOUDY    79  66  65 VRB5      29.97S
COLUMBIA       PTSUNNY   73  73 100 S6        29.90R
SHELBYVILLE    PTSUNNY   81  70  69 S14       29.94F
$$

TNZ017-018-042-046-047-282000-
NORTHEAST TENNESSEE

CITY           SKY/WX    TMP DP  RH WIND       PRES   REMARKS
TRI CITIES     MOSUNNY   82  53  36 NW7       30.01S
$$

TNZ012-013-036-069-073-074-282000-
CENTRAL EAST TENNESSEE

CITY           SKY/WX    TMP DP  RH WIND       PRES   REMARKS
KNOXVILLE      PTSUNNY   82  64  54 SW9       29.97F
OAK RIDGE      MOSUNNY   80  64  58 VRB7      30.00S
GATLINBURG     SUNNY     81  59  47 NE5       29.97F
$$

TNZ083-085-099-282000-
SOUTHEAST TENNESSEE

CITY           SKY/WX    TMP DP  RH WIND       PRES   REMARKS
CHATTANOOGA    PTSUNNY   81  66  60 S12       29.98F
$$

SKY/WX REPORTED AS FAIR MEANS FEW OR NO CLOUDS BELOW
12 THOUSAND FEET.





USA.gov is the U.S. government's official web portal to all federal, state and local government web resources and services.